Tonopah, NV

9:12 AM PDT on April 25, 2017 (GMT -0700)
Tonopah

Weather History for KTPH - September, 2013

Change the Weather History Date:

Sunday, September 1, 2013

  Actual Average Record
Temperature  
Mean Temperature 73 °F 69 °F  
Max Temperature 86 °F 86 °F 95 °F (1955)
Min Temperature 59 °F 52 °F 39 °F (1999)
Degree Days  
Heating Degree Days 0 1  
Month to date heating degree days 0 1  
Since 1 July heating degree days 0 7  
Cooling Degree Days 8 5  
Month to date cooling degree days 8 5  
Year to date cooling degree days 929 718  
Growing Degree Days 22 (Base 50)    
Moisture  
Dew Point 58 °F    
Average Humidity 64    
Maximum Humidity 90    
Minimum Humidity 37    
Precipitation  
Precipitation 1.31 in 0.02 in 1.30 in (2013)
Month to date precipitation 1.31 0.02  
Year to date precipitation 3.96 3.79  
Sea Level Pressure  
Sea Level Pressure 29.98 in    
Wind  
Wind Speed 11 mph (NNE)    
Max Wind Speed 32 mph    
Max Gust Speed 37 mph    
Visibility 8 miles    
Events Rain , Thunderstorm    
T = Trace of Precipitation, MM = Missing Value Source: NWS Daily Summary

Daily Weather History Graph

Daily Weather History Graph

Search for Another Location

Airport or City:

Trip Planner

Search our weather history database for the weather conditions in past years. The results will help you decide how hot, cold, wet, or windy it might be!

Date:

Astronomy

Sep. 01, 2013 Rise Set
Actual Time 6:18 AM PDT 7:17 PM PDT
Civil Twilight 5:51 AM PDT 7:44 PM PDT
Nautical Twilight 5:19 AM PDT 8:16 PM PDT
Astronomical Twilight 4:46 AM PDT 8:49 PM PDT
Moon 2:46 AM PDT (9/1) 4:55 PM PDT (9/1)
Length of Visible Light 13h 52m
Length of Day
12h 58m
Waning Crescent, 13% of the Moon is Illuminated
Sep 1
Waning Crescent
Sep 5
New
Sep 12
First Quarter
Sep 19
Full
Sep 26
Last Quarter

Hourly Weather History & Observations

Time (PDT) Temp. Heat Index Dew Point Humidity Pressure Visibility Wind Dir Wind Speed Gust Speed Precip Events Conditions
12:56 AM 64.0 °F - 59.0 °F 84% 29.93 in 10.0 mi North 5.8 mph - N/A   Clear
1:56 AM 63.0 °F - 57.9 °F 84% 29.92 in 10.0 mi North 5.8 mph - N/A   Clear
2:56 AM 62.1 °F - 57.0 °F 84% 29.96 in 10.0 mi NNE 6.9 mph - N/A   Clear
3:56 AM 60.1 °F - 55.0 °F 83% 29.93 in 10.0 mi North 8.1 mph - N/A   Clear
4:56 AM 60.1 °F - 54.0 °F 80% 29.94 in 10.0 mi North 8.1 mph - N/A   Clear
5:56 AM 59.0 °F - 53.1 °F 81% 29.94 in 10.0 mi North 8.1 mph - N/A   Clear
6:56 AM 61.0 °F - 54.0 °F 78% 29.97 in 10.0 mi North 8.1 mph - N/A   Clear
7:56 AM 66.9 °F - 55.0 °F 66% 29.96 in 10.0 mi North 5.8 mph - N/A   Clear
8:56 AM 69.1 °F - 57.0 °F 65% 29.96 in 10.0 mi Calm Calm - N/A   Clear
9:56 AM 73.0 °F - 57.0 °F 57% 29.96 in 10.0 mi SSE 4.6 mph - N/A   Clear
10:56 AM 75.0 °F - 57.9 °F 55% 29.95 in 10.0 mi SSW 6.9 mph - N/A   Clear
11:56 AM 78.1 °F - 57.0 °F 48% 29.92 in 10.0 mi SSW 8.1 mph - N/A   Clear
12:56 PM 81.0 °F 80.8 °F 55.9 °F 42% 29.89 in 10.0 mi South 8.1 mph - N/A   Clear
1:56 PM 82.9 °F 82.0 °F 55.0 °F 38% 29.86 in 10.0 mi South 8.1 mph - N/A   Clear
2:56 PM 84.9 °F 83.6 °F 55.0 °F 36% 29.83 in 10.0 mi Variable 6.9 mph 16.1 mph N/A   Partly Cloudy
3:56 PM 84.9 °F 83.6 °F 55.0 °F 36% 29.81 in 10.0 mi South 12.7 mph - N/A   Clear
4:56 PM 84.9 °F 83.6 °F 55.0 °F 36% 29.80 in 10.0 mi South 17.3 mph 20.7 mph 0.00 in   Partly Cloudy
5:56 PM 78.1 °F - 57.0 °F 48% 29.83 in 10.0 mi SE 28.8 mph 34.5 mph N/A Thunderstorm Thunderstorm
6:08 PM 62.6 °F - 57.2 °F 82% 30.08 in 1.8 mi ENE 10.4 mph 29.9 mph 0.22 in Rain , Thunderstorm Heavy Thunderstorms and Rain
6:15 PM 64.4 °F - 57.2 °F 77% 30.05 in 3.0 mi East 10.4 mph - 0.25 in Rain , Thunderstorm Thunderstorms and Rain
6:36 PM 69.8 °F - 62.6 °F 78% 30.04 in 10.0 mi East 15.0 mph - 0.26 in Thunderstorm Thunderstorm
6:56 PM 72.0 °F - 63.0 °F 73% 29.86 in 10.0 mi Variable 5.8 mph - 0.26 in Thunderstorm Thunderstorm
7:20 PM 73.4 °F - 60.8 °F 65% 30.05 in 10.0 mi NNE 9.2 mph - N/A   Mostly Cloudy
7:41 PM 71.6 °F - 60.8 °F 69% 30.06 in 10.0 mi ENE 6.9 mph - 0.00 in Rain , Thunderstorm Light Rain
7:56 PM 72.0 °F - 62.1 °F 71% 29.85 in 10.0 mi ENE 8.1 mph - 0.00 in   Mostly Cloudy
8:05 PM 71.6 °F - 62.6 °F 73% 30.05 in 10.0 mi East 10.4 mph - N/A Thunderstorm Scattered Clouds
8:38 PM 62.6 °F - 60.8 °F 94% 30.15 in 1.8 mi NNW 18.4 mph 32.2 mph 0.24 in Rain , Thunderstorm Heavy Thunderstorms and Rain
8:44 PM 62.6 °F - 59.0 °F 88% 30.14 in 1.0 mi North 25.3 mph 32.2 mph 0.42 in Rain , Thunderstorm Heavy Thunderstorms and Rain
8:52 PM 60.8 °F - 59.0 °F 94% 30.16 in 2.0 mi North 21.9 mph 31.1 mph 0.51 in Rain , Thunderstorm Heavy Thunderstorms and Rain
8:56 PM 61.0 °F - 59.0 °F 93% 29.99 in 2.5 mi NNE 25.3 mph 31.1 mph 0.61 in Rain , Thunderstorm Heavy Thunderstorms and Rain
9:02 PM 60.8 °F - 57.2 °F 88% 30.15 in 1.8 mi NNE 29.9 mph 36.8 mph 0.06 in Rain , Thunderstorm Heavy Thunderstorms and Rain
9:08 PM 59.0 °F - 57.2 °F 94% 30.14 in 3.0 mi NNE 28.8 mph - 0.10 in Rain , Thunderstorm Heavy Thunderstorms and Rain
9:56 PM 60.1 °F - 57.0 °F 90% 29.97 in 6.0 mi North 20.7 mph 31.1 mph 0.40 in Rain , Thunderstorm Thunderstorms and Rain
10:02 PM 60.8 °F - 57.2 °F 88% 30.15 in 6.0 mi North 15.0 mph 26.5 mph 0.03 in Rain , Thunderstorm Heavy Rain
10:23 PM 60.8 °F - 57.2 °F 88% 30.16 in 10.0 mi North 20.7 mph 28.8 mph 0.03 in   Overcast
10:56 PM 62.1 °F - 57.0 °F 84% 29.96 in 10.0 mi North 19.6 mph - 0.03 in   Overcast
11:56 PM 62.1 °F - 57.0 °F 84% 29.95 in 10.0 mi North 16.1 mph - 0.01 in   Mostly Cloudy